Theta_e
322 324 323 323 327 330 327 327 328 329 332 333 333 332 333 332 332 333 332 332 333 332 332 332 331 331 331 332 333 332 333 333 333 333 333 332 331 330 329 328 327 326 325 324 321 320 318 318 317 318 318 318 318 318 317 317 316 315 315 313 313 315 319 323 328 336 340 340 341 341 341 339 338 339 336 336 338 340 341 340 337 337 334 331 335
324 327 327 325 325 330 328 327 329 329 331 332 333 332 333 332 331 330 329 330 331 332 332 332 332 332 332 332 333 333 334 334 335 335 335 334 333 333 332 332 331 330 329 328 327 325 323 321 320 319 319 319 319 318 318 317 317 316 315 314 313 312 315 321 324 331 337 339 340 341 341 339 339 339 337 336 338 340 341 341 339 338 335 331 333
326 328 328 326 323 327 329 330 330 330 331 330 331 331 331 331 330 328 328 329 330 331 331 332 333 333 334 333 333 334 334 334 335 336 336 335 335 334 334 333 331 331 330 329 329 329 327 327 326 324 324 322 321 320 320 318 318 317 317 316 314 313 312 318 324 328 333 337 339 341 341 340 339 340 338 337 339 340 341 341 340 339 335 331 333
323 324 324 324 321 321 324 328 330 330 331 330 330 330 330 329 329 328 328 329 330 331 332 332 332 333 334 334 333 334 335 335 335 335 336 336 336 336 336 335 333 333 332 330 329 328 328 328 327 326 326 325 325 323 322 321 319 319 318 317 316 314 312 313 321 328 331 335 338 340 341 341 340 340 338 337 340 340 341 341 340 339 335 331 333
317 318 318 319 317 315 314 319 325 328 329 330 330 330 330 330 329 330 330 330 331 332 332 332 331 332 333 333 333 334 334 334 335 335 335 336 336 336 336 335 335 335 334 333 331 330 329 329 327 327 326 325 326 326 324 321 320 319 319 319 318 316 313 311 316 324 330 333 337 339 340 341 341 341 338 335 339 340 340 341 341 339 335 331 333
314 314 314 314 313 312 311 311 315 321 324 327 329 329 330 330 330 331 331 331 331 331 332 332 332 333 332 333 334 334 334 334 335 335 335 335 335 336 335 335 335 334 334 334 333 331 331 330 329 328 327 325 326 328 327 324 321 319 319 318 318 317 314 312 312 318 326 332 335 338 339 341 341 341 338 334 337 339 340 341 342 340 335 333 334
312 312 313 313 313 312 312 311 311 313 316 319 323 325 328 330 331 331 331 331 331 332 332 332 332 332 332 333 333 333 334 334 335 335 335 335 335 335 334 334 334 334 334 334 334 332 332 331 331 330 329 329 327 329 329 328 326 322 319 317 317 316 314 312 311 312 320 329 333 336 338 340 341 341 337 333 337 339 340 341 342 340 335 336 336
310 311 311 311 312 312 312 312 312 312 312 312 314 317 321 324 327 329 330 330 330 331 331 331 331 332 333 333 333 333 334 334 334 335 335 335 335 335 334 334 334 334 334 334 334 333 333 331 330 330 329 329 328 328 328 329 331 329 324 319 316 315 314 312 311 311 315 324 331 335 337 339 341 342 336 332 337 339 340 341 341 339 336 338 338
308 309 309 309 310 310 310 311 311 312 312 312 312 312 313 316 319 322 324 326 328 329 329 329 330 330 331 331 331 332 333 333 334 334 335 335 335 335 335 334 334 334 334 334 333 333 333 332 331 330 330 329 329 327 326 327 330 332 331 325 318 314 312 312 311 310 311 318 328 334 336 339 340 341 336 332 337 340 340 341 341 339 338 339 338
307 307 307 308 308 308 308 308 309 309 310 311 311 312 312 312 313 314 316 319 322 325 326 327 327 327 328 328 329 331 331 332 332 333 334 334 334 334 334 334 334 334 334 334 333 333 332 333 332 332 331 331 330 328 326 326 327 330 332 331 326 318 313 310 311 311 310 313 322 332 335 338 340 340 336 334 338 340 341 341 341 340 339 339 338
306 306 306 306 307 306 306 306 307 307 308 308 309 309 310 311 311 312 312 314 315 317 320 322 323 324 324 325 327 328 329 330 331 332 332 332 332 333 333 334 334 334 334 334 333 334 333 333 333 332 332 331 330 329 327 326 325 325 327 331 332 329 323 316 311 309 310 311 315 326 333 336 339 340 337 335 337 338 340 341 341 340 339 339 339
305 305 305 305 305 305 305 306 306 306 306 306 307 307 307 308 308 309 310 311 312 313 314 316 318 320 322 322 324 325 326 328 328 329 330 330 331 332 332 332 333 333 333 333 333 333 333 332 332 331 332 332 331 330 329 327 326 324 324 327 330 332 332 328 322 314 310 310 312 320 330 335 337 340 338 336 336 337 338 341 341 340 340 339 339
304 304 304 304 305 305 304 305 305 305 305 305 305 306 306 306 306 307 307 308 309 310 311 312 313 315 318 319 321 321 322 323 324 325 326 327 328 329 330 331 331 332 332 333 333 332 332 332 331 330 330 331 331 331 330 329 327 325 324 324 327 329 331 333 332 327 317 310 309 315 324 333 337 339 338 337 337 337 337 339 341 340 340 340 339
304 304 304 304 304 304 304 304 304 305 305 305 305 305 305 306 306 306 306 306 306 307 307 308 309 311 312 314 316 318 319 320 321 321 322 323 323 325 326 328 329 330 331 331 332 332 332 332 332 331 331 331 331 331 331 330 329 327 325 323 324 327 329 331 332 334 330 319 310 311 319 328 336 338 338 338 337 336 337 338 340 341 340 340 340
303 304 303 304 304 304 304 304 304 305 305 305 305 305 305 305 305 305 306 305 306 305 306 306 306 307 308 309 311 312 314 316 317 318 319 320 320 321 322 323 325 328 329 330 331 331 331 331 332 332 332 331 330 330 329 330 330 329 327 325 323 325 327 329 330 332 334 330 318 311 316 324 331 337 338 337 336 335 336 337 339 340 340 340 340
303 303 303 304 304 304 304 304 304 304 304 304 304 304 304 304 304 305 305 305 305 306 306 306 306 305 306 306 307 307 309 311 312 314 315 317 317 318 318 318 320 322 325 328 329 329 329 330 331 331 331 331 329 329 329 329 329 329 328 327 324 323 325 327 329 329 331 334 329 318 316 323 328 334 338 337 336 335 335 336 338 339 340 340 340
303 303 303 304 304 304 304 303 303 302 302 302 302 302 302 302 302 302 303 303 304 304 305 305 305 305 305 305 305 305 305 306 308 309 311 312 314 315 315 316 316 317 319 321 324 325 326 327 328 329 329 329 328 328 327 328 328 329 328 328 326 324 324 325 328 329 328 331 333 326 318 322 327 331 336 338 336 334 335 334 336 338 340 340 340
303 303 303 304 304 304 303 302 302 301 301 301 301 301 301 301 301 301 301 301 301 301 302 302 303 303 304 304 304 304 304 304 305 305 306 307 309 311 312 314 314 314 315 316 317 319 320 322 323 323 324 324 325 325 325 326 326 326 326 327 328 326 325 325 326 328 329 328 330 331 324 319 324 330 333 336 337 335 334 334 334 336 339 339 339
303 303 303 304 303 303 302 301 301 301 301 301 301 301 301 301 300 300 300 300 300 300 300 300 300 301 301 302 302 302 303 303 303 304 304 304 305 306 308 309 311 313 314 314 315 315 315 316 317 317 316 317 317 318 320 322 324 324 324 325 326 327 326 326 326 327 328 328 328 330 329 323 321 328 332 334 337 336 335 334 334 335 337 337 338
303 303 303 303 302 302 301 301 301 301 301 301 301 301 301 300 301 301 300 300 300 300 300 300 300 300 300 300 300 300 300 301 302 302 303 303 303 304 304 305 306 308 310 312 313 314 315 315 314 315 315 314 314 314 315 315 318 320 322 324 326 326 327 327 326 326 327 328 328 327 329 328 323 324 329 333 335 337 335 334 334 334 335 336 337
303 303 303 303 302 301 301 301 301 301 301 301 300 300 300 300 300 300 300 300 300 300 300 300 300 300 300 299 299 299 299 299 300 300 301 301 302 302 303 303 303 304 305 307 309 311 313 315 315 315 315 315 315 314 313 313 313 314 316 322 326 326 327 328 327 326 326 326 328 327 327 329 328 325 326 330 333 335 335 334 332 331 334 335 335
303 303 302 302 302 301 301 301 301 301 300 300 300 300 300 300 300 300 300 300 300 300 300 300 300 300 300 299 299 299 299 299 299 299 299 299 299 300 300 301 302 302 303 303 304 305 308 311 314 315 315 316 316 315 314 313 312 311 313 318 324 327 328 328 328 326 326 325 325 327 326 326 329 328 326 327 331 334 335 335 333 330 332 335 335
302 302 302 302 301 301 301 301 301 301 300 300 300 300 300 300 300 299 299 299 299 299 299 299 299 299 299 299 299 299 299 299 299 299 298 299 298 298 299 299 299 300 301 301 302 302 303 305 308 312 315 316 317 317 316 314 312 311 312 316 320 325 328 327 328 327 326 325 324 324 326 326 326 328 328 326 327 332 334 335 334 331 331 334 335
302 302 301 301 301 301 301 301 300 300 300 300 299 299 299 299 299 299 299 299 299 299 299 299 299 299 299 299 299 298 298 298 298 298 298 298 298 298 298 298 298 299 299 299 300 300 301 301 303 306 311 315 317 318 317 316 315 313 313 315 317 321 325 326 327 328 327 326 325 323 323 325 325 325 328 328 327 329 332 334 335 333 331 332 334
302 301 301 301 301 301 300 300 300 300 299 299 299 299 299 298 298 298 298 298 298 298 298 298 298 298 298 298 298 298 298 298 298 298 298 298 298 298 298 298 298 298 298 298 299 299 300 300 301 302 304 309 314 318 319 319 318 317 316 316 317 319 323 325 326 327 327 327 326 325 323 322 324 324 325 328 329 328 329 333 335 335 332 330 331
301 301 300 300 300 300 300 300 300 299 299 299 298 298 298 298 298 298 297 297 298 297 297 297 297 297 297 297 297 297 297 297 297 297 297 297 297 297 298 298 298 298 298 298 298 298 298 299 299 300 301 302 306 312 317 319 320 319 319 319 318 320 322 324 325 326 326 327 326 326 325 322 322 324 324 325 328 329 328 330 333 335 333 330 330
301 300 300 300 299 299 299 299 298 298 298 298 297 297 297 297 297 297 297 297 297 297 297 297 296 296 296 296 296 297 297 297 297 296 297 296 297 297 297 297 297 297 297 297 297 297 298 298 298 298 299 299 300 303 309 314 319 320 321 321 321 321 322 323 326 327 325 325 326 325 326 325 322 322 323 324 325 329 329 328 331 334 333 332 329
300 299 299 299 298 298 298 298 297 297 297 297 297 296 296 296 296 296 296 296 296 296 296 296 296 296 296 296 296 296 296 296 296 296 296 296 296 297 297 297 297 297 297 297 297 297 297 297 298 298 298 298 299 299 301 305 311 317 320 321 322 321 322 322 325 325 324 323 324 325 325 325 324 322 322 323 323 326 330 330 330 332 333 333 331
299 298 298 298 298 297 297 297 297 297 297 296 296 296 296 296 296 296 296 295 295 296 296 296 296 296 295 295 295 296 296 296 296 296 296 296 296 296 296 297 297 297 297 297 297 297 297 297 297 297 297 298 298 298 299 300 302 308 314 319 321 321 322 323 323 323 323 322 322 323 323 322 323 324 322 321 322 323 327 330 331 331 332 333 332
298 298 298 298 297 297 297 297 296 296 296 296 296 296 296 296 296 295 295 295 295 295 295 295 295 295 295 295 295 295 295 295 295 295 296 296 296 296 296 296 296 296 297 297 297 297 297 297 297 297 297 297 297 298 298 298 299 300 305 312 318 320 322 323 324 324 323 323 322 321 322 322 321 323 324 321 320 320 323 328 331 331 331 333 333
298 298 298 297 296 296 296 296 296 296 296 296 296 296 295 295 295 295 295 295 295 295 295 295 295 295 295 295 295 295 295 295 295 295 295 295 295 296 296 296 296 296 296 296 297 297 297 297 297 297 297 297 297 297 297 297 298 298 299 304 310 316 320 322 323 324 325 324 324 322 322 323 321 321 324 324 321 319 320 324 328 331 331 331 332
298 297 297 296 296 296 296 296 296 296 296 296 295 295 295 295 295 295 295 295 295 295 295 295 295 295 295 294 294 294 294 294 295 295 295 295 295 295 295 295 296 296 296 296 296 296 297 297 297 297 297 297 296 296 296 297 297 297 297 298 302 308 315 320 322 323 324 325 325 324 323 324 323 321 322 324 323 319 319 320 323 329 331 331 331
297 296 296 296 296 295 295 295 295 295 295 295 295 295 295 294 294 295 294 294 294 294 295 295 295 295 294 294 294 294 294 294 294 294 295 295 295 295 295 295 295 295 295 295 295 295 296 296 296 296 296 296 297 296 296 296 296 297 297 297 297 300 306 313 319 322 323 325 324 324 324 324 324 322 321 323 324 321 319 319 320 324 328 330 330
296 296 296 296 295 294 294 295 294 294 295 294 294 294 294 294 294 294 294 294 294 294 294 294 295 295 294 294 294 294 294 294 294 294 294 294 294 294 295 295 295 295 295 295 295 295 295 295 295 295 296 296 296 296 296 296 296 296 296 296 296 297 299 304 312 318 322 323 324 324 324 325 325 324 321 321 324 324 321 320 320 322 325 327 329
296 295 295 295 294 293 294 294 294 294 294 294 294 294 294 294 294 294 294 294 294 294 294 294 295 295 294 294 294 294 294 294 294 294 294 294 294 294 294 294 295 295 295 295 295 295 295 295 295 295 295 295 295 295 295 295 296 296 296 296 296 296 296 298 303 310 317 321 322 323 325 325 325 325 323 321 322 324 323 321 320 321 323 325 327
295 295 294 293 293 293 293 294 294 294 294 294 294 294 294 294 294 294 294 294 294 294 294 294 295 294 294 294 293 293 293 293 293 293 293 294 294 294 294 294 294 294 294 295 295 295 295 295 294 294 294 294 294 294 294 294 295 295 296 296 296 296 296 296 298 302 309 316 319 321 323 325 325 325 324 322 322 324 324 323 321 321 323 324 326
294 294 293 293 293 293 293 294 294 294 294 294 294 294 294 294 294 294 294 294 294 294 294 294 295 294 294 293 293 293 293 293 293 293 293 293 293 293 293 293 293 294 294 294 294 294 295 295 295 294 294 293 293 293 293 293 294 295 295 295 295 295 295 296 296 297 301 308 315 320 321 323 324 324 324 323 323 324 325 324 323 321 323 324 324
294 293 293 293 293 293 294 294 294 294 294 294 294 293 293 294 294 294 293 293 293 293 294 294 295 294 293 293 293 293 293 293 293 293 293 293 293 293 293 293 293 293 294 294 294 294 294 294 294 294 293 293 292 292 292 293 293 294 294 295 295 295 295 295 295 296 297 300 308 316 319 321 323 324 324 324 323 324 325 326 325 322 322 324 324
294 293 293 293 293 293 294 294 294 294 293 293 293 293 293 293 293 293 293 293 293 293 294 295 294 294 293 292 292 292 292 292 292 292 293 293 293 293 293 293 293 293 293 293 293 294 294 293 293 293 292 291 291 291 292 292 292 293 293 294 294 294 295 295 295 295 295 297 301 308 315 319 321 323 324 324 323 323 325 326 326 325 322 323 324
293 293 293 293 293 294 294 294 294 293 293 293 293 293 293 293 293 293 293 293 293 293 294 294 294 293 292 292 291 292 292 292 292 292 292 292 292 292 292 293 292 292 292 293 293 293 293 293 292 291 290 290 289 289 290 291 292 292 293 293 294 294 294 294 295 295 295 295 297 301 309 315 319 321 323 324 323 323 324 325 326 325 323 323 323
293 293 293 293 293 294 294 293 293 293 293 293 293 293 293 293 293 293 293 293 293 293 294 294 293 292 292 291 291 291 291 291 291 291 291 292 292 292 292 292 292 291 291 292 292 292 291 291 291 290 289 288 288 288 289 290 291 292 293 293 293 293 294 294 294 295 295 295 295 297 303 310 317 320 321 324 324 323 324 325 326 325 324 323 323
294 293 293 293 293 293 293 293 293 293 292 292 292 292 292 292 292 292 292 292 292 292 293 293 293 292 291 291 291 291 291 291 291 291 291 291 291 291 291 291 291 291 291 291 291 291 290 290 290 290 290 289 289 289 288 289 290 291 292 293 293 293 294 294 295 295 295 296 295 295 297 303 312 318 320 322 324 323 323 324 325 325 324 324 324
294 293 293 293 293 293 293 293 293 292 292 292 292 292 292 292 292 291 291 291 292 292 292 292 292 292 291 291 291 290 290 290 290 290 290 290 290 291 291 291 290 290 290 290 291 290 291 291 290 290 290 289 289 289 288 290 291 291 292 293 294 295 295 295 295 296 296 296 297 299 299 299 304 314 319 321 323 323 323 323 325 326 325 324 324
294 293 293 293 293 293 293 293 292 292 292 292 292 292 292 291 291 291 291 291 291 291 291 292 292 291 291 290 290 290 290 290 290 290 290 290 290 290 290 290 290 290 290 290 290 291 291 291 290 289 288 288 289 289 288 289 291 292 292 294 295 295 295 295 295 295 295 296 300 305 307 305 305 310 316 319 321 322 322 323 324 326 325 324 325
294 294 293 293 293 293 293 292 292 292 292 291 291 291 291 291 291 291 291 291 291 291 292 292 292 291 290 290 290 290 289 290 289 289 289 289 289 289 290 290 290 290 290 290 290 290 290 290 289 288 287 287 287 288 287 287 289 291 292 293 294 295 296 296 295 296 295 295 297 300 305 310 312 313 316 317 319 320 321 322 323 324 324 324 325
294 294 293 293 293 293 292 292 292 292 291 291 291 291 291 291 291 291 291 291 291 291 291 292 291 291 290 290 290 289 289 289 289 289 289 289 289 289 289 289 289 289 289 289 290 290 290 289 288 287 287 286 286 286 286 286 287 289 291 292 293 294 295 296 296 296 296 296 295 296 298 306 312 314 316 318 318 318 318 319 321 322 324 324 324
294 294 293 293 293 292 292 292 291 291 291 291 291 291 291 291 291 291 290 290 290 290 290 290 290 290 290 289 289 289 289 289 289 289 289 289 289 289 289 289 289 289 288 289 289 289 289 289 288 287 287 286 285 284 285 285 285 287 290 291 292 292 293 295 296 296 296 296 295 295 295 299 306 310 315 319 319 318 317 319 320 321 323 324 324
294 293 293 293 293 292 292 291 291 291 291 291 291 291 291 291 291 290 290 290 290 290 290 290 289 289 289 289 289 288 288 288 288 288 288 288 288 288 288 289 289 289 288 288 289 289 289 289 289 288 287 286 285 284 284 284 284 285 287 290 291 292 293 294 296 296 297 297 296 296 295 296 299 306 312 317 319 320 320 320 321 321 322 323 324
294 293 293 292 292 292 292 291 291 291 291 291 291 291 291 290 290 290 290 290 289 289 289 289 289 289 289 288 288 288 288 288 288 288 288 288 288 288 288 288 288 288 288 288 288 289 289 289 289 288 287 286 285 283 283 283 283 283 285 288 290 292 293 294 296 296 296 297 297 296 296 296 295 302 309 312 315 318 320 322 322 321 323 323 323
294 293 292 292 292 292 291 291 291 291 291 291 291 291 290 290 290 290 290 289 289 289 289 289 289 288 288 288 288 288 288 288 288 288 287 287 287 287 287 287 287 287 288 288 288 289 289 289 288 287 286 285 285 284 283 283 283 283 284 285 288 291 292 294 296 297 296 296 297 296 296 296 296 299 306 308 309 312 316 321 323 323 323 324 324
293 292 292 292 292 292 291 291 291 291 291 291 290 290 290 290 290 290 289 289 289 289 289 289 289 288 288 288 288 288 288 288 288 287 287 287 287 287 287 287 287 287 287 287 288 288 289 289 288 288 287 286 285 285 284 283 283 283 283 284 286 289 291 293 295 296 297 296 296 296 296 296 296 298 301 303 305 308 311 315 321 323 324 324 324
Wind_Speed
6 7 7 6 5 5 5 5 4 3 2 1 2 2 2 2 2 3 3 4 4 5 5 5 6 6 7 7 8 9 9 9 9 9 8 7 6 6 7 8 9 10 11 13 15 17 18 18 19 19 19 18 18 17 17 16 15 13 12 12 11 11 12 13 14 15 14 13 12 11 10 10 10 10 10 12 12 11 12 14 15 13 12 13 13
9 8 7 5 3 3 3 5 4 4 3 2 2 1 1 1 2 1 0 1 2 3 4 5 5 6 7 7 8 9 10 10 10 11 10 11 10 9 8 7 7 7 8 9 12 14 15 16 18 19 19 20 20 20 19 18 18 16 14 13 12 11 11 13 14 15 15 14 14 13 12 10 11 11 11 12 13 12 12 14 16 14 12 14 14
9 8 7 5 2 1 1 2 3 3 3 3 3 3 2 2 2 2 2 1 2 3 4 5 6 6 7 8 8 9 10 10 10 11 11 11 12 13 12 12 11 10 10 9 9 10 11 12 14 16 17 18 19 20 20 20 20 19 17 15 14 13 12 13 14 15 15 15 15 15 13 12 12 12 12 13 13 12 13 15 17 16 13 15 15
8 8 9 7 5 3 3 3 4 4 5 5 5 5 4 4 4 4 4 4 3 4 5 6 6 7 8 9 10 10 11 11 11 11 11 11 12 13 14 14 14 14 13 12 12 11 10 10 11 13 15 17 17 18 19 20 21 21 20 18 16 15 13 13 14 15 15 15 16 16 15 14 13 12 13 14 13 12 13 16 18 17 15 16 17
9 9 9 8 7 5 4 5 5 6 6 6 7 7 7 7 6 6 6 6 6 5 6 6 7 8 9 9 11 11 11 12 11 12 12 13 13 13 13 14 14 15 15 15 15 14 13 12 12 13 15 17 17 17 18 19 20 21 21 20 17 16 15 14 14 15 15 15 16 17 17 15 15 13 13 14 14 13 14 17 18 18 16 17 18
9 8 8 7 6 5 3 4 6 7 8 8 9 8 9 9 9 8 9 9 8 8 8 7 8 9 10 10 10 11 12 12 12 12 13 13 13 13 14 13 14 15 15 15 15 16 16 15 14 14 15 16 17 16 16 17 19 20 21 21 19 17 16 15 15 15 16 16 17 18 18 17 16 14 14 15 15 14 14 17 19 18 17 18 19
8 8 8 6 5 4 4 4 5 6 8 9 10 10 10 10 11 10 10 11 10 10 9 8 8 9 9 10 11 12 12 12 12 12 13 13 14 14 15 14 14 15 15 15 15 16 17 17 17 17 16 15 16 17 17 17 18 19 20 21 20 19 17 16 16 16 17 17 18 18 18 18 17 16 15 15 16 15 16 17 19 19 18 18 20
7 8 8 8 7 5 5 4 5 6 7 8 9 10 11 11 12 12 12 13 12 12 12 11 10 10 9 10 11 11 11 12 13 13 13 13 14 14 15 16 15 16 16 15 15 15 16 17 18 18 18 17 17 17 18 18 18 19 19 20 20 20 19 17 16 17 17 18 19 18 18 19 18 17 16 16 17 17 16 17 19 20 19 20 22
6 7 7 8 8 7 7 6 5 5 5 6 8 9 10 11 12 13 14 14 15 15 15 15 14 14 13 13 13 12 12 12 13 13 13 13 14 15 15 16 17 17 17 17 17 16 16 17 18 18 19 19 19 18 18 19 19 19 18 19 19 20 20 19 17 17 18 19 20 19 19 20 20 19 17 17 17 18 17 18 20 20 20 22 23
4 5 6 6 7 7 8 8 7 6 6 5 5 6 8 9 11 11 13 14 15 16 16 17 17 17 17 17 16 15 15 14 14 14 14 14 14 15 15 16 17 18 18 18 17 17 17 17 18 18 18 19 20 20 19 19 20 20 19 19 19 19 19 20 19 18 18 19 20 20 20 20 21 20 19 18 18 18 18 19 21 22 22 23 24
2 3 4 5 5 6 7 8 8 8 8 7 7 6 6 6 7 9 10 12 13 15 16 17 18 19 19 20 19 18 18 17 17 17 17 16 15 15 15 16 16 17 18 18 18 18 18 18 18 18 19 19 20 20 20 20 20 22 22 21 20 19 19 19 19 19 19 20 21 22 21 21 22 21 20 20 20 20 20 21 23 23 24 24 25
1 2 4 4 4 5 6 6 7 7 8 8 8 8 8 7 7 7 7 9 10 12 14 16 17 19 20 20 21 21 21 20 20 20 20 19 19 18 18 18 17 17 17 17 18 18 19 19 19 19 19 19 19 19 20 20 20 21 22 23 22 21 20 20 20 20 20 21 22 23 22 22 23 23 21 21 21 22 22 23 24 25 25 25 26
3 3 4 4 4 5 5 6 6 7 7 8 8 8 9 9 8 8 8 8 8 9 10 13 15 17 19 20 22 22 22 23 23 23 23 23 22 22 22 21 20 20 19 19 19 19 20 20 21 21 21 21 20 19 20 20 21 22 22 23 24 23 22 21 22 22 22 21 23 24 24 23 24 24 23 23 23 22 23 24 25 26 26 26 26
4 3 4 3 4 4 4 5 5 6 6 7 7 7 8 8 9 9 9 9 9 9 9 10 11 13 16 18 20 22 23 23 24 25 26 26 26 25 25 24 24 24 23 22 21 21 20 20 21 21 22 22 22 22 21 21 21 22 22 23 24 24 24 23 24 24 24 23 23 25 26 25 25 24 24 25 24 23 24 26 26 27 27 27 27
3 3 3 2 3 4 4 5 5 6 7 7 8 8 8 8 9 9 10 10 10 10 10 10 10 11 12 14 16 19 21 23 25 26 26 27 27 28 28 27 27 26 26 24 23 23 21 21 21 21 22 22 23 23 23 23 22 22 23 23 24 24 25 25 26 26 26 25 24 25 27 27 26 26 26 27 26 26 26 27 27 28 29 28 28
3 2 1 1 2 3 4 6 6 7 8 8 9 9 9 9 10 10 10 11 12 12 12 12 12 12 12 12 13 15 17 20 22 24 26 28 28 29 29 29 29 29 29 28 28 26 25 24 23 23 23 23 24 24 24 24 23 23 24 23 24 25 25 26 27 28 28 27 26 26 27 28 27 27 27 29 29 28 28 29 28 29 30 30 30
4 3 1 1 2 4 5 7 7 8 9 9 10 10 11 11 11 11 11 12 12 13 13 14 14 14 14 14 14 14 15 16 18 20 23 26 28 29 30 30 31 31 31 31 32 31 30 29 28 26 26 26 26 26 26 25 24 25 26 25 24 25 25 27 28 29 29 29 28 28 28 28 28 28 29 31 32 31 31 30 30 31 31 31 31
5 4 2 2 2 4 6 7 8 8 9 9 10 11 11 12 12 12 12 13 13 13 14 15 15 16 16 16 16 16 17 17 17 18 20 21 24 26 28 30 31 32 32 32 33 34 33 33 32 32 31 30 29 29 29 28 26 27 27 27 27 26 26 27 29 30 31 31 31 30 29 29 29 29 30 32 34 33 32 32 33 32 31 32 32
6 4 3 2 2 4 5 7 8 9 10 10 11 12 12 12 13 13 14 14 14 14 14 15 15 16 17 18 18 18 19 19 19 19 20 21 21 23 24 26 29 31 32 33 34 34 35 34 34 34 35 34 33 33 33 33 31 30 29 29 29 29 29 29 31 31 32 34 33 32 31 30 30 30 30 32 35 35 34 34 35 33 32 33 34
6 5 3 2 2 4 5 6 8 9 10 11 12 12 12 13 13 14 14 15 15 16 15 16 16 16 16 17 18 19 20 20 21 21 22 22 22 23 23 24 25 27 29 31 33 34 35 36 36 35 36 36 36 37 36 36 35 34 33 31 30 31 32 32 32 32 34 35 35 35 33 31 31 32 32 32 35 37 37 36 36 35 34 34 34
7 6 4 3 2 3 3 5 7 9 11 11 12 12 13 13 13 14 14 15 16 16 16 17 17 17 17 17 18 18 19 19 20 22 22 23 24 24 24 25 25 26 27 28 30 32 34 35 36 37 37 37 37 38 38 38 37 37 37 35 33 32 33 34 34 34 35 36 36 37 36 34 32 33 34 33 34 37 38 38 38 37 36 36 36
8 6 5 4 3 3 4 5 7 9 11 12 12 13 14 14 14 15 15 16 16 16 17 17 17 17 17 18 18 19 19 19 20 21 21 22 23 24 25 26 27 27 28 28 28 29 31 33 35 37 37 36 37 38 39 40 40 39 38 38 37 34 33 34 35 36 36 37 38 38 37 36 35 34 34 35 35 37 39 40 40 39 39 38 38
9 7 6 4 4 4 5 7 8 11 12 13 14 14 14 15 16 16 16 17 17 18 18 18 18 18 18 18 18 18 19 20 20 21 22 22 22 23 24 26 27 28 29 30 30 30 30 30 32 35 37 37 36 36 38 39 40 40 40 39 39 37 35 35 36 37 38 38 38 39 38 38 37 36 35 36 36 38 39 42 43 42 42 40 39
10 8 6 5 4 5 6 8 10 12 13 14 15 15 15 16 16 16 17 18 18 19 19 19 19 19 19 19 19 19 19 20 21 22 22 23 23 24 24 25 26 27 29 30 31 31 31 31 31 32 34 36 37 36 36 37 38 39 40 40 40 40 37 36 36 37 39 40 39 39 39 40 39 38 37 37 37 39 40 42 45 45 45 43 41
11 8 6 5 5 5 6 7 10 11 13 14 15 16 16 16 16 16 17 17 18 18 18 18 18 19 19 19 20 20 20 20 21 21 22 23 24 25 26 26 27 27 28 29 30 31 32 33 33 32 32 34 36 37 36 36 36 36 38 39 39 40 39 38 38 39 40 41 41 39 39 41 41 41 39 38 38 39 40 42 45 47 47 46 44
11 9 7 6 5 4 5 7 9 11 13 14 15 16 16 16 16 17 17 17 18 18 18 18 19 19 19 19 20 20 21 21 21 21 21 22 23 25 26 28 29 29 30 31 31 31 32 32 33 34 33 33 34 35 36 37 36 36 37 38 38 38 38 37 38 40 41 42 43 41 40 40 42 42 41 41 40 40 41 42 45 47 48 49 48
11 9 7 6 5 4 5 7 9 11 13 14 15 15 16 16 17 17 17 18 19 19 20 20 21 21 21 21 21 22 23 23 23 24 23 23 23 23 25 26 28 30 31 33 33 33 33 33 33 34 34 34 34 35 36 37 37 37 37 37 37 38 37 35 34 39 43 43 43 44 42 41 41 43 43 43 42 41 42 43 46 47 49 50 50
10 7 5 4 4 5 6 8 10 12 13 14 15 16 16 17 17 18 18 19 20 21 21 22 22 22 23 24 24 24 25 25 26 26 27 26 26 26 26 26 26 28 30 32 34 35 36 36 35 34 34 35 35 36 36 37 38 38 38 38 38 38 38 37 36 39 43 44 44 44 44 44 42 43 44 44 44 43 43 44 46 48 50 51 51
8 6 5 4 5 5 7 9 10 12 14 15 16 16 17 17 18 18 19 20 20 22 22 23 23 24 25 25 26 26 27 27 28 29 30 30 30 30 30 29 28 28 29 30 32 34 36 38 38 38 36 36 36 36 37 38 38 39 40 40 41 40 40 40 39 39 40 44 46 45 45 45 45 44 44 46 46 45 44 45 46 48 50 52 53
8 7 6 6 5 5 7 8 10 12 14 14 15 16 16 17 18 19 19 20 21 22 23 24 25 26 26 27 27 28 28 29 29 30 31 32 33 33 34 34 33 32 31 30 30 32 34 36 39 40 40 39 38 37 37 39 39 39 40 41 42 42 43 42 42 40 39 41 44 47 47 46 47 46 46 47 47 47 46 46 47 48 49 51 54
10 8 7 6 5 6 7 8 10 11 13 13 14 15 16 17 18 19 20 20 21 22 23 24 25 26 27 27 27 28 28 29 30 30 31 33 34 35 36 37 37 37 36 35 32 31 32 34 36 39 42 42 41 39 39 39 40 40 40 42 42 43 45 45 45 43 40 39 41 45 47 46 48 48 48 48 48 49 48 47 48 48 49 50 52
10 9 7 6 5 6 7 8 9 11 12 13 14 15 16 17 18 19 19 20 21 22 23 24 25 26 27 27 27 28 28 29 30 31 32 33 34 35 36 37 39 39 39 39 38 36 34 33 33 35 38 42 44 43 41 41 41 41 41 42 43 44 45 46 48 47 44 42 40 42 44 46 48 50 50 49 49 49 50 50 49 49 48 49 50
11 9 7 7 7 6 7 8 9 10 12 13 14 15 15 16 17 19 19 20 21 22 23 25 26 27 27 28 28 28 29 30 31 32 32 33 33 34 34 36 37 39 40 40 41 40 39 37 35 34 35 38 42 44 45 44 43 42 42 42 43 45 45 46 49 50 48 45 42 42 43 44 47 51 52 51 51 50 50 51 51 50 48 49 50
11 10 9 9 8 6 6 7 9 10 12 13 14 14 15 16 18 19 19 20 21 22 24 25 27 27 28 28 29 29 30 31 32 32 33 34 34 35 35 35 36 38 39 40 41 41 41 40 39 38 36 36 38 41 44 47 47 46 44 43 43 45 46 46 49 51 52 50 46 44 44 44 45 50 54 54 53 51 51 51 52 52 49 50 50
12 10 10 8 7 6 6 7 8 10 12 13 13 15 16 17 18 19 20 20 21 22 24 25 27 28 28 28 29 30 30 31 32 33 34 35 36 37 38 38 38 39 39 40 41 41 41 41 41 40 40 38 38 39 41 45 48 49 48 46 44 44 46 48 49 50 53 53 51 47 45 44 44 48 53 55 55 53 52 51 52 53 51 51 51
12 11 10 8 6 6 6 7 9 11 12 13 14 15 16 17 18 19 20 20 21 22 24 26 27 28 28 28 29 30 31 31 32 33 34 35 37 38 39 40 40 41 41 41 41 42 42 42 41 40 41 41 40 39 41 43 46 49 50 49 48 46 45 48 49 51 52 53 54 52 48 46 44 46 50 54 56 55 53 52 52 53 53 51 50
13 11 10 8 7 7 7 9 10 11 13 14 15 16 17 18 19 20 20 21 22 23 24 27 28 29 29 29 29 30 31 31 32 33 34 35 36 37 38 39 41 42 42 43 42 42 42 43 42 39 39 41 41 41 42 43 45 48 50 51 51 49 48 47 48 50 52 54 56 56 54 50 45 46 49 51 54 56 54 53 53 53 53 52 50
13 12 10 9 8 8 9 10 11 12 13 14 16 17 17 19 19 20 21 21 22 23 25 28 30 30 30 29 30 30 31 32 33 34 34 35 36 37 38 39 40 42 42 43 43 43 42 41 42 39 37 37 40 42 42 43 45 47 49 51 51 51 52 50 49 49 51 54 56 58 57 55 49 46 50 52 54 56 55 54 54 53 54 53 51
15 13 11 10 9 9 10 11 12 13 14 15 16 17 18 19 20 20 21 22 22 23 26 30 31 30 30 30 30 30 31 32 33 34 34 36 36 37 38 38 40 41 42 43 44 44 43 40 39 39 37 35 37 40 42 43 45 46 47 50 51 52 53 53 51 50 50 53 55 58 58 58 55 50 50 52 54 56 57 56 55 54 54 54 52
16 14 12 11 10 10 11 11 12 12 14 15 17 18 19 21 21 22 22 22 24 24 27 31 31 31 31 30 31 31 32 33 33 34 35 36 37 38 39 39 40 41 42 44 44 44 43 42 39 38 37 37 36 36 38 39 42 46 47 48 50 51 53 54 54 52 51 52 54 57 58 59 58 55 52 51 52 54 56 57 57 56 55 55 54
18 15 13 12 12 11 11 11 12 13 14 16 18 19 21 22 23 24 24 24 25 26 27 29 30 30 30 30 31 32 33 33 34 35 36 36 37 38 39 40 41 42 43 44 45 44 43 42 41 39 37 38 37 33 31 33 38 43 45 46 48 50 51 51 53 55 53 51 53 55 57 58 59 58 54 50 51 52 54 56 57 57 56 56 55
20 17 15 14 13 12 11 11 12 13 15 17 18 20 22 23 24 25 26 26 27 28 28 28 29 29 29 30 31 32 33 34 35 36 36 37 38 39 40 41 42 43 45 45 45 44 43 43 43 42 39 37 40 36 29 29 34 39 41 44 49 50 49 49 50 51 50 46 47 51 56 57 58 59 56 51 50 51 52 54 56 58 57 56 56
21 19 17 15 13 11 11 11 12 14 15 17 18 20 22 23 25 26 27 28 28 29 29 30 31 31 31 32 33 33 34 35 36 36 37 37 38 39 40 41 42 43 45 45 45 45 44 44 43 44 42 39 41 39 31 26 30 35 35 37 41 42 45 48 45 42 39 35 35 40 47 54 56 58 57 53 51 51 52 53 56 58 58 58 57
24 22 19 16 13 11 10 11 12 14 15 17 19 21 22 23 24 25 27 28 29 30 31 32 33 34 34 34 34 35 36 37 37 38 39 39 39 40 41 41 41 42 43 45 46 46 45 45 43 41 40 40 42 42 35 28 27 30 30 33 34 31 36 42 40 39 37 32 30 31 34 42 49 53 55 55 53 51 53 54 56 58 59 58 58
26 24 20 16 13 11 10 10 12 13 15 17 19 21 22 24 25 26 28 29 29 31 33 34 35 36 36 36 36 36 36 37 37 38 39 40 41 41 42 43 43 43 44 45 47 47 47 45 43 41 38 37 40 43 41 34 29 28 29 33 31 25 31 35 35 43 45 37 34 35 34 33 37 44 49 54 55 52 52 54 56 57 58 59 58
28 24 20 16 12 11 10 10 11 13 15 17 19 21 23 24 26 28 29 31 31 31 33 34 35 35 36 36 36 35 36 36 36 37 39 40 41 42 43 44 45 45 46 46 47 47 47 45 44 43 42 38 38 42 45 40 33 32 33 35 36 33 38 39 34 40 47 45 41 38 38 36 34 36 40 47 54 54 54 55 57 57 57 59 59
28 25 21 16 13 10 10 10 11 13 15 17 19 21 23 25 27 28 29 31 33 33 33 35 36 36 37 37 37 37 36 37 37 37 38 39 41 42 43 43 45 45 46 47 47 47 46 45 44 44 44 42 39 42 46 43 37 37 36 35 40 43 44 44 40 37 40 47 49 42 39 40 38 36 36 39 45 52 56 56 57 59 57 58 59
29 26 21 17 13 10 9 10 12 13 15 17 19 21 23 25 26 28 29 30 32 34 35 35 37 38 39 39 39 39 38 38 38 38 39 40 41 42 43 44 44 45 46 47 48 48 48 47 46 45 44 42 40 40 43 43 39 42 42 36 37 41 42 44 45 42 37 41 49 50 44 42 41 38 36 37 39 44 53 57 57 59 59 58 59
29 26 21 17 13 10 9 11 12 13 15 17 19 21 23 25 26 28 29 30 32 34 35 36 38 39 40 40 40 40 40 40 39 39 40 40 41 42 43 44 45 45 46 47 48 48 49 49 48 47 45 43 41 40 42 43 43 46 45 41 38 38 40 43 44 44 42 39 42 47 44 42 45 42 37 36 36 36 45 56 59 59 60 60 59
30 26 21 17 13 10 10 11 12 13 15 17 19 21 22 24 26 28 30 31 33 34 36 37 38 39 41 41 41 41 42 42 41 41 41 41 41 42 43 45 45 46 46 47 48 48 49 49 49 47 46 46 45 44 44 45 46 48 46 43 40 38 37 40 42 42 41 39 39 43 42 40 45 46 44 40 37 34 35 47 58 60 60 60 60
30 26 21 17 13 11 10 11 13 14 16 17 19 20 22 24 26 28 30 32 33 35 37 38 39 40 41 42 43 43 43 43 43 43 42 41 42 43 43 45 46 46 47 47 48 49 50 50 50 49 48 47 47 46 46 46 45 48 49 46 44 43 40 41 41 39 38 37 38 41 41 37 41 46 49 48 44 38 34 38 50 60 61 61 60
Wind_Direction
333 337 356 49 58 77 108 122 132 151 149 117 89 68 53 42 33 16 9 352 347 346 335 329 328 326 323 319 317 317 313 312 311 310 309 299 286 274 268 268 271 275 276 277 277 278 280 283 286 288 290 289 288 287 288 290 292 293 292 290 286 277 267 259 256 260 260 251 247 246 247 251 255 252 246 255 256 252 245 234 230 230 232 222 221
344 339 341 12 38 67 124 145 161 181 183 165 131 146 112 91 110 78 24 348 336 322 312 311 309 309 310 307 309 308 304 306 308 308 311 309 306 300 291 289 287 291 292 286 281 280 281 283 286 288 291 292 291 291 291 291 291 292 291 289 287 281 271 264 258 256 258 253 247 247 243 239 248 255 250 252 255 253 246 235 231 229 229 224 221
326 319 317 335 347 352 189 183 199 206 211 211 201 207 210 198 177 184 206 226 256 278 278 287 291 290 288 287 292 292 292 295 296 296 299 303 304 303 302 303 299 303 309 305 295 288 289 294 295 293 292 292 293 294 293 292 291 290 288 288 287 284 275 265 260 254 253 254 250 246 242 236 240 250 252 252 253 251 242 232 228 225 224 226 224
310 305 306 311 306 286 251 244 236 230 233 231 222 225 229 222 214 214 219 226 238 269 268 267 274 276 276 276 280 283 285 286 289 287 285 286 288 291 294 299 301 304 307 309 308 304 304 309 310 305 299 295 292 292 292 291 290 289 287 286 285 284 280 270 262 255 249 250 251 246 242 238 237 243 250 254 254 249 240 230 225 222 219 223 225
309 306 306 304 302 290 258 248 244 243 245 245 239 236 238 237 239 235 235 239 240 258 264 260 265 272 278 279 276 280 286 286 287 285 280 278 279 282 285 292 299 299 301 306 308 309 308 309 314 310 306 302 297 294 292 290 288 287 287 285 283 281 280 276 267 260 250 245 248 247 245 241 238 238 246 251 250 249 243 232 224 220 217 219 221
310 309 307 305 304 297 280 260 252 249 247 248 248 245 243 244 246 246 245 247 245 249 259 262 267 270 276 280 275 278 283 284 284 283 280 279 281 280 279 282 286 288 293 300 303 305 305 305 309 309 308 308 304 300 294 291 289 286 285 283 281 278 276 276 271 265 256 247 245 246 247 245 240 238 241 245 245 248 246 234 225 222 218 216 219
320 318 318 320 317 307 295 281 270 263 258 255 254 253 249 248 249 250 250 250 250 250 256 263 272 273 276 281 277 278 281 283 282 283 282 278 281 280 278 277 278 281 285 290 294 299 301 302 302 303 305 304 302 300 296 293 291 288 285 284 282 277 272 272 271 267 261 252 247 245 246 246 242 239 239 240 240 244 243 234 226 224 219 216 220
330 328 334 337 340 341 330 308 293 280 274 270 266 266 263 260 258 256 255 253 255 256 258 261 266 270 277 280 273 276 281 283 281 282 283 279 279 279 278 276 277 279 281 283 284 287 291 295 296 298 300 299 296 295 294 293 293 292 289 286 283 280 274 270 268 267 263 255 250 248 245 244 241 238 239 237 237 241 241 233 225 223 218 217 221
331 341 350 349 353 358 356 349 335 316 297 287 279 277 275 274 271 267 264 262 260 260 260 261 262 264 269 271 269 274 276 277 278 279 280 281 281 282 281 276 276 276 278 279 278 280 280 284 289 292 295 297 297 294 292 291 292 293 293 288 285 283 279 274 268 265 263 257 251 249 246 243 242 238 236 235 236 241 240 231 223 220 218 218 222
339 2 2 359 6 11 10 7 5 359 349 333 311 295 287 282 279 277 274 272 269 267 265 264 264 265 267 268 270 273 274 274 276 276 276 278 279 281 282 277 277 276 277 277 276 278 276 278 282 286 289 291 294 294 290 288 290 291 291 289 286 284 281 277 273 266 263 260 252 248 246 243 243 238 234 235 237 239 237 229 222 218 219 221 224
9 27 25 25 24 27 26 22 21 16 12 7 1 350 332 313 298 290 285 280 277 274 272 270 268 267 266 268 269 271 272 273 275 276 275 276 276 276 276 276 277 277 277 276 277 277 276 277 280 281 282 283 286 290 288 285 285 287 288 288 287 284 281 278 275 271 264 262 256 249 245 243 243 239 234 233 234 235 231 228 224 221 221 222 224
106 80 65 58 54 49 45 39 34 29 24 19 14 11 6 359 347 330 315 300 290 284 280 276 274 271 269 269 269 270 270 271 272 273 273 274 276 276 274 273 273 274 274 275 277 276 275 275 276 277 277 277 277 282 285 282 281 282 284 285 285 284 282 278 276 273 268 263 259 254 246 242 242 240 237 232 229 231 230 228 226 224 223 222 223
132 110 99 82 74 65 58 50 43 37 30 25 18 13 8 5 2 357 349 336 322 309 295 286 280 276 274 272 272 272 272 272 273 272 273 273 274 274 274 274 273 272 271 273 273 273 274 274 274 274 274 274 273 275 278 280 279 278 279 280 282 283 281 278 275 274 271 265 261 258 250 243 242 239 237 233 226 228 231 229 227 226 224 222 222
142 126 106 89 79 66 59 48 40 34 25 19 12 7 3 358 355 352 349 344 340 332 324 313 300 290 283 279 276 275 274 274 274 274 275 275 275 274 273 273 274 274 272 271 270 270 271 272 274 273 272 272 272 273 274 276 277 275 274 275 277 280 281 279 275 273 272 268 263 260 256 246 241 239 235 233 226 226 231 230 228 227 225 223 222
161 141 106 87 70 52 43 28 22 14 7 3 356 352 348 345 342 338 336 333 331 330 326 323 318 311 302 293 287 281 278 276 275 275 275 276 276 275 275 275 274 273 271 270 268 268 267 267 270 270 270 270 269 271 272 272 272 272 269 269 272 275 278 279 277 273 270 269 265 261 259 252 243 238 233 231 228 225 229 231 229 227 226 224 223
185 165 132 76 40 25 17 11 7 1 356 352 348 345 340 336 333 328 325 321 318 318 315 314 312 310 307 304 299 292 287 282 279 277 275 275 275 275 275 275 274 272 271 270 268 267 267 265 266 265 266 267 266 268 269 270 271 271 268 264 266 270 274 276 277 274 270 268 266 262 259 256 248 241 234 230 229 227 227 230 231 229 227 225 223
191 191 205 293 342 356 359 2 2 0 357 353 349 344 340 335 331 326 321 316 312 308 305 305 303 302 300 298 297 295 294 290 287 283 280 277 275 274 274 274 274 273 272 271 270 269 269 268 268 267 267 267 267 267 267 268 268 269 270 265 263 265 268 271 274 273 272 268 266 263 259 256 251 245 237 231 229 228 228 228 231 232 229 226 224
194 203 221 284 326 348 354 359 360 359 355 353 350 345 343 338 334 331 326 321 316 312 306 303 300 298 296 294 293 291 291 290 289 288 286 284 280 278 275 274 273 273 273 272 271 271 271 270 269 268 268 268 267 267 266 264 263 265 268 267 264 263 264 265 268 270 271 270 267 263 258 255 253 249 243 235 230 228 230 229 230 233 231 229 226
200 213 228 287 328 352 358 1 357 356 353 351 349 347 347 343 342 339 336 333 327 323 316 312 306 301 298 294 293 291 290 288 287 286 286 286 285 284 281 278 276 274 273 272 272 271 271 270 269 268 268 268 267 266 266 265 263 263 263 263 265 265 263 261 262 264 267 268 268 265 260 255 253 251 247 240 235 230 230 232 232 234 233 232 230
211 222 233 276 322 353 358 358 356 356 354 353 352 350 350 348 348 346 343 341 337 333 328 324 318 312 307 301 298 293 291 289 287 286 285 285 284 285 284 283 282 279 277 274 273 272 271 270 269 269 268 268 268 267 266 266 265 263 261 258 261 263 262 260 259 259 261 264 267 266 262 257 253 251 249 244 240 235 232 233 235 235 235 234 233
221 227 240 265 297 339 345 351 354 357 359 359 357 356 356 354 353 352 349 346 342 339 335 331 326 323 319 314 310 305 301 296 292 290 287 287 286 285 284 284 284 283 282 279 277 275 273 270 269 269 268 267 266 267 266 266 265 263 261 257 257 259 258 259 259 257 256 258 262 265 264 260 255 252 250 247 244 240 235 233 235 235 234 234 233
226 232 242 255 276 311 330 344 349 357 2 3 2 2 1 0 359 356 354 350 346 343 338 335 331 328 325 321 318 315 313 309 306 302 297 294 291 290 288 287 285 284 284 282 281 279 277 274 271 268 267 267 265 265 264 264 264 263 261 257 256 257 257 258 258 258 256 255 257 260 263 262 259 254 251 248 245 243 238 235 235 235 235 234 232
230 235 241 256 282 311 326 339 348 357 2 4 5 6 4 3 2 358 355 351 347 344 341 338 335 332 330 327 324 321 319 317 315 313 309 305 301 298 294 292 289 287 285 283 282 282 280 278 275 271 268 266 265 264 263 263 262 261 260 256 255 255 257 257 257 258 257 255 254 255 259 261 261 258 254 250 247 245 242 238 236 236 237 235 231
230 234 242 266 289 311 325 338 349 356 1 4 5 5 6 4 1 358 354 351 348 344 340 337 334 332 330 328 328 327 325 323 321 318 315 312 309 306 302 299 295 292 289 286 283 281 280 279 276 274 271 267 265 264 263 263 261 260 258 256 255 255 255 255 256 258 258 256 255 254 255 257 260 260 257 253 249 246 244 242 239 236 236 235 232
228 231 238 257 277 302 321 336 347 354 359 2 4 4 4 2 359 356 353 350 346 342 339 336 333 331 329 329 329 328 327 326 324 323 320 317 315 312 309 307 303 300 297 293 290 286 282 280 278 275 274 270 266 264 263 263 261 259 258 257 256 257 257 256 255 256 257 257 255 254 253 254 257 259 258 256 251 248 245 244 241 237 236 235 233
224 226 231 246 262 290 315 334 344 353 359 1 3 3 1 359 356 354 351 348 345 342 340 337 335 333 332 332 330 329 328 328 327 327 326 324 321 319 316 314 311 308 306 303 299 295 291 286 283 279 276 273 270 266 264 263 263 262 259 258 257 257 257 258 261 260 257 256 256 255 254 253 254 257 259 257 254 251 246 244 243 240 237 236 235
222 225 232 247 270 299 322 339 349 355 0 3 2 1 359 357 355 353 350 348 346 344 342 340 340 338 337 335 334 333 331 330 330 329 329 329 328 325 323 320 317 314 312 309 306 303 300 295 290 286 282 278 274 270 267 264 263 264 262 260 258 257 257 258 265 266 259 255 255 255 254 253 251 253 256 257 256 253 248 244 244 241 237 235 235
222 231 244 266 297 320 337 347 353 357 360 1 1 359 357 355 353 351 350 349 348 345 343 342 340 339 338 337 336 335 333 332 331 330 330 330 331 330 328 326 323 319 316 312 309 306 304 302 297 292 288 284 279 274 270 267 264 264 264 262 260 259 258 256 260 263 260 256 255 254 253 252 251 250 252 255 255 255 252 246 243 242 238 235 235
224 232 252 278 304 324 341 348 350 355 357 359 358 356 355 353 351 350 350 349 347 346 343 341 339 338 337 336 336 335 335 334 333 332 331 331 331 330 330 329 328 325 320 316 313 308 305 303 301 298 293 288 284 280 275 270 266 265 263 262 261 261 261 260 261 264 265 260 255 253 252 252 251 250 250 252 254 254 253 250 245 242 239 238 237
222 232 249 268 293 318 331 340 345 350 353 355 354 353 352 350 350 349 350 349 347 346 343 340 338 337 337 337 337 338 338 337 336 334 332 332 331 331 331 330 329 328 324 321 317 312 307 303 301 299 297 293 288 284 280 275 269 265 264 262 260 260 260 262 263 264 266 265 259 255 253 252 251 251 249 250 252 253 253 251 249 246 242 240 239
223 235 247 264 287 308 321 331 338 344 348 351 350 350 350 350 350 349 348 347 346 344 341 339 337 336 336 336 337 337 336 335 335 334 333 333 332 332 331 331 330 329 328 325 322 317 311 305 300 298 297 296 293 289 284 280 275 269 265 262 260 259 258 259 262 263 263 265 265 260 256 254 252 251 250 248 250 252 252 251 251 250 246 242 241
227 236 247 264 280 297 312 324 332 339 343 347 348 348 349 349 348 348 347 346 345 343 340 338 335 335 334 334 334 334 333 333 332 332 332 332 331 331 332 332 332 331 330 327 325 321 316 311 305 298 294 293 292 291 288 284 280 275 270 265 262 260 258 257 258 261 261 262 264 262 259 258 254 253 252 249 248 249 251 251 250 250 249 246 243
229 236 245 259 270 289 306 319 329 336 341 344 346 346 348 348 347 346 345 344 344 342 340 338 335 334 333 333 333 333 332 331 330 329 329 329 329 330 330 331 331 331 330 329 326 323 320 316 311 305 297 291 288 288 289 287 283 279 274 269 265 261 259 257 254 256 259 260 262 261 260 261 259 255 253 251 248 247 249 251 250 249 249 249 246
229 236 244 256 267 282 300 318 329 334 340 342 343 344 345 346 345 344 344 343 343 341 339 336 334 333 333 333 332 332 331 330 329 328 328 329 329 329 329 329 329 329 330 330 327 324 322 318 315 311 304 297 289 285 285 286 286 283 279 274 268 264 261 259 255 254 255 257 260 261 260 262 262 258 254 252 249 247 247 249 251 250 248 248 248
228 235 246 253 264 279 300 318 328 332 336 337 339 341 343 345 343 342 342 341 341 339 336 334 332 331 330 330 329 329 328 329 329 329 330 331 330 331 331 331 330 329 329 329 328 326 323 319 316 313 308 303 295 289 284 281 283 284 283 280 273 268 263 260 257 255 254 255 258 259 259 262 264 261 255 252 251 249 247 247 249 250 248 247 247
228 234 242 248 259 278 301 316 323 327 330 332 335 339 341 342 341 339 338 338 338 336 334 332 330 328 327 327 327 327 328 329 329 329 330 330 330 330 331 331 330 330 329 329 329 328 325 320 317 313 309 304 298 293 286 281 280 280 281 282 279 274 267 262 259 257 255 255 255 256 257 261 265 263 257 253 252 251 248 247 247 248 248 246 246
230 233 237 246 260 279 297 310 316 322 326 330 335 338 339 338 338 337 336 336 336 334 333 330 327 326 326 326 327 328 328 329 328 328 328 327 328 328 328 329 328 328 327 327 328 328 326 321 317 312 306 301 296 291 287 282 279 277 277 278 280 279 274 267 262 258 257 255 253 253 255 257 263 265 262 255 252 252 251 250 248 247 248 247 245
230 232 237 247 261 280 294 305 313 320 325 330 334 335 335 335 335 334 334 334 332 332 331 328 326 325 326 327 328 328 327 327 326 325 325 325 325 324 325 325 324 324 324 324 326 327 326 322 316 312 305 296 290 286 285 283 281 279 276 275 277 279 278 274 267 261 259 257 253 252 252 253 257 262 263 257 253 251 251 253 251 248 247 247 245
231 233 239 249 263 281 291 302 312 320 325 327 331 332 332 332 331 331 330 330 330 332 331 326 325 325 326 328 327 327 326 326 325 324 324 323 322 322 322 323 322 322 322 323 324 325 326 323 317 311 306 296 285 279 279 282 284 283 280 277 277 277 277 277 274 268 261 258 255 252 251 251 252 255 259 258 255 252 251 253 253 250 247 247 246
231 237 241 251 265 277 288 300 310 319 324 326 329 329 330 330 329 329 329 329 330 332 330 326 325 325 326 327 327 326 325 325 324 323 323 322 322 322 322 323 323 323 323 323 324 325 325 323 318 311 306 299 290 280 277 280 284 285 284 282 279 277 276 276 276 274 267 260 256 254 252 251 251 252 255 258 256 253 252 252 252 251 249 248 247
230 237 242 251 262 272 286 300 312 321 324 326 328 328 329 329 328 328 329 330 330 330 328 325 323 323 323 324 324 323 323 322 322 321 321 321 321 322 322 324 325 325 325 325 326 325 324 321 316 311 304 298 295 290 284 284 284 285 287 288 284 279 277 277 275 274 272 266 259 255 253 251 250 251 252 256 257 255 253 252 252 251 249 249 249
230 237 243 251 260 271 287 302 315 322 326 327 328 328 328 329 328 328 329 329 329 328 327 325 322 321 321 322 322 322 321 321 321 321 321 321 322 323 324 325 326 327 327 327 327 325 321 317 314 310 305 296 291 291 292 288 284 285 291 294 290 285 281 279 275 274 275 274 267 260 255 253 251 250 251 253 255 255 254 252 252 252 249 248 249
230 237 243 250 260 273 289 305 317 322 325 326 327 328 327 327 328 327 327 328 328 326 326 325 323 322 323 323 323 322 321 321 321 321 322 322 323 323 324 324 324 325 325 324 323 322 320 317 313 309 305 297 289 286 288 288 285 286 291 290 289 293 290 282 277 275 276 275 269 262 258 256 253 250 250 252 252 253 254 253 252 251 249 248 249
227 235 242 249 260 274 290 306 317 321 323 324 325 326 326 326 326 325 325 326 326 325 325 326 324 323 324 324 323 323 322 322 323 324 324 324 324 323 322 322 321 321 320 319 319 319 318 316 312 307 303 298 292 286 282 281 282 283 284 282 283 290 286 282 284 280 273 269 262 257 258 257 255 252 250 251 252 253 254 253 251 251 250 249 249
227 234 241 247 258 272 290 306 314 318 321 322 324 324 324 325 324 324 324 323 323 324 324 324 323 322 322 322 322 322 322 322 322 323 323 323 323 322 322 321 320 320 319 318 318 318 318 316 312 307 301 296 292 287 282 278 275 271 270 273 277 278 273 280 292 284 276 277 268 257 255 253 251 252 251 250 250 252 254 253 251 251 251 249 248
226 233 240 245 255 269 288 303 310 314 318 320 322 323 323 324 324 324 324 323 324 325 324 322 321 319 319 319 319 320 320 320 320 320 320 320 320 320 320 319 319 319 319 317 317 317 316 314 310 304 299 294 289 284 280 277 275 267 262 264 264 266 271 278 287 285 283 285 278 264 257 253 249 249 250 251 251 251 254 255 252 251 251 248 246
225 232 238 242 251 266 285 298 304 310 316 319 321 322 323 323 324 324 324 324 325 325 324 322 321 319 319 319 319 320 320 319 320 319 319 319 318 318 317 317 317 317 317 316 315 314 313 311 308 302 297 293 286 280 276 276 278 271 263 263 263 263 267 270 272 278 285 287 283 275 263 255 254 251 245 246 252 254 253 253 252 250 251 248 245
225 231 236 240 248 262 281 292 300 308 314 318 320 321 322 322 323 323 323 323 323 323 323 321 320 320 319 319 319 320 321 320 320 320 319 319 317 316 316 315 315 315 314 313 312 312 311 310 307 303 298 291 285 279 274 271 273 271 265 263 266 265 265 265 264 266 273 280 282 282 274 261 256 255 245 239 245 253 253 251 249 247 248 247 244
225 231 235 238 246 258 274 287 297 306 312 316 319 320 321 321 322 321 321 321 321 321 321 320 319 319 318 319 319 319 320 320 321 320 319 318 317 316 315 314 314 313 312 311 311 310 309 309 307 303 298 291 285 279 275 269 265 267 267 265 265 266 267 266 262 259 260 268 275 281 282 271 262 255 247 242 242 247 252 249 247 246 245 245 243
225 230 233 237 244 254 270 284 295 304 311 315 318 320 320 320 320 320 320 320 320 320 319 318 318 318 317 318 318 319 320 320 320 319 318 318 317 316 315 314 313 312 311 310 309 309 307 306 304 300 295 290 285 280 276 272 264 262 264 265 264 265 268 267 259 253 254 260 266 274 278 278 274 260 249 252 252 249 253 251 245 242 242 243 242
224 227 230 235 243 253 267 283 293 302 310 314 317 319 319 319 319 320 320 320 320 320 319 318 318 318 318 318 318 319 320 319 318 317 318 318 317 316 315 313 312 311 310 309 308 307 306 304 302 299 294 289 285 281 277 273 265 260 259 260 261 261 263 265 261 252 252 257 261 268 273 275 279 270 256 258 261 257 257 255 247 240 239 241 240